Location: Agendoh
(31.0664°N, 8.9343°W)
Time: 08:47:13
(UTC+00:00)

Cosmos 1328 Rocket - Pass Details

Date: 06 December 2021
Orbit: 600 x 627 km, 82.5° (Epoch: 24 January)

Event Time Altitude Azimuth Distance (km) Brightness Sun altitude
Exits shadow 06:02:44 - 351° (N) 2,434 6.4 -16.3°
Reaches altitude 10° 06:03:52 10° 350° (N) 1,971 5.9 -16.1°
Maximum altitude 06:08:13 75° 266° (W) 632 3.4 -15.2°
Drops below altitude 10° 06:12:31 10° 181° (S) 1,944 6.3 -14.3°
Sets 06:14:42 0° 179° (S) 2,840 7.2 -13.8°
